sat.trackr.live / text

‹ back to catalog

STARLINK-4707

NORAD 53721 · 2022-107X

PAYLOAD ACTIVE UNKNOWN

§ Identity

Operator
Country
US
Launch date
2022-09-05
Launch site
AFETR
Launch vehicle
Mass (kg)
RCS (m²)

Purposes: comms

External: N2YO · Heavens-Above · Gunter

§ Orbital elements

Epoch: 2026-05-25T01:11:13.057152Z

Period
95.44 min
Inclination
53.2134°
Eccentricity
0.0001955
Mean motion
15.08814844 rev/d
Perigee alt
538.5 km
Apogee alt
541.2 km
Semi-major
6,918.0 km
B*
3.4071e-4
RAAN
271.1614°
Arg perigee
84.3032°
Mean anomaly
275.8183°
Rev number
20,594

§ Raw data

STARLINK-47071 53721U 22107X   26145.04945668  .00005135  00000+0  34071-3 0  99912 53721  53.2134 271.1614 0001955  84.3032 275.8183 15.08814844205947

JSON: /api/v1/satellites/53721 · /tle

For live sub-satellite position, see the globe view (requires WebGL).

§ Visibility from observer

Set your observer location to see the next 7 days of passes ≥ 10°. The values pass through the URL so the page stays shareable.

No JS? Fill the form by hand. The geolocation button needs JavaScript.